When you browse on this site, cookies collect data to enhance your experience and personalize the content and advertising you see.
Visit our Privacy Policy to learn more. By continuing to use the site, you agree to this use of cookies and data.
  • In Schweiz
  • Länderverzeichnis
  • Für 7 Tage
  • Wassertemperatur
  • Wetterkarte
  • Widgets
  • user-avatar
    Anmelden

    Stündliche Wetter Sherpur

    Heute, 17 November, Sonntag

    Zeit Temperatur Niederschläge Wind Luftdruck Luftfeuchtigkeit
    00:00 +7°C° 0 mm 0 m/S 611 mmHg 82%
    01:00 +6°C° 0 mm 0 m/S 612 mmHg 82%
    02:00 +6°C° 0 mm 0 m/S 612 mmHg 82%
    03:00 +6°C° 0 mm 0 m/S 611 mmHg 83%
    04:00 +6°C° 0 mm 0 m/S 611 mmHg 84%
    05:00 +5°C° 0 mm 0 m/S 611 mmHg 85%
    06:00 +6°C° 0 mm 0 m/S 611 mmHg 82%
    07:00 +6°C° 0 mm 0 m/S 612 mmHg 80%
    08:00 +6°C° 0 mm 0 m/S 612 mmHg 77%
    09:00 +7°C° 0 mm 0 m/S 613 mmHg 70%
    10:00 +8°C° 0 mm 0 m/S 613 mmHg 64%
    11:00 +10°C° 0 mm 0 m/S 613 mmHg 57%
    12:00 +10°C° 0 mm 0 m/S 613 mmHg 54%
    13:00 +12°C° 0 mm 1 m/S 613 mmHg 50%
    14:00 +13°C° 0 mm 1 m/S 612 mmHg 46%
    15:00 +12°C° 0 mm 1 m/S 612 mmHg 47%
    16:00 +11°C° 0 mm 0 m/S 612 mmHg 48%
    17:00 +11°C° 0 mm 0 m/S 612 mmHg 50%
    18:00 +11°C° 0 mm 1 m/S 612 mmHg 50%
    19:00 +10°C° 0 mm 1 m/S 612 mmHg 51%
    20:00 +10°C° 0 mm 1 m/S 612 mmHg 52%
    21:00 +9°C° 0 mm 1 m/S 612 mmHg 52%
    22:00 +9°C° 0 mm 1 m/S 612 mmHg 51%
    23:00 +8°C° 0 mm 1 m/S 612 mmHg 51%

    Morgen, 18 November, Montag

    Zeit Temperatur Niederschläge Wind Luftdruck Luftfeuchtigkeit
    00:00 +8°C° 0 mm 1 m/S 612 mmHg 50%
    01:00 +7°C° 0 mm 1 m/S 612 mmHg 50%
    02:00 +7°C° 0 mm 1 m/S 611 mmHg 49%
    03:00 +7°C° 0 mm 1 m/S 611 mmHg 48%
    04:00 +6°C° 0 mm 1 m/S 610 mmHg 46%
    05:00 +6°C° 0 mm 1 m/S 610 mmHg 45%
    06:00 +6°C° 0 mm 1 m/S 610 mmHg 43%
    07:00 +6°C° 0 mm 1 m/S 611 mmHg 42%
    08:00 +7°C° 0 mm 1 m/S 611 mmHg 40%
    09:00 +8°C° 0 mm 1 m/S 611 mmHg 36%
    10:00 +10°C° 0 mm 1 m/S 612 mmHg 31%
    11:00 +11°C° 0 mm 1 m/S 612 mmHg 27%
    12:00 +12°C° 0 mm 1 m/S 612 mmHg 26%
    13:00 +13°C° 0 mm 1 m/S 612 mmHg 24%
    14:00 +14°C° 0 mm 1 m/S 611 mmHg 22%
    15:00 +13°C° 0 mm 1 m/S 611 mmHg 25%
    16:00 +12°C° 0 mm 1 m/S 611 mmHg 28%
    17:00 +10°C° 0 mm 0 m/S 610 mmHg 31%
    18:00 +11°C° 0 mm 1 m/S 610 mmHg 32%
    19:00 +10°C° 0 mm 1 m/S 610 mmHg 32%
    20:00 +9°C° 0 mm 1 m/S 610 mmHg 33%
    21:00 +9°C° 0 mm 1 m/S 609 mmHg 33%
    22:00 +7°C° 0 mm 0 m/S 609 mmHg 33%
    23:00 +7°C° 0 mm 0 m/S 609 mmHg 33%

    übermorgen, 19 November, Dienstag

    Zeit Temperatur Niederschläge Wind Luftdruck Luftfeuchtigkeit
    00:00 +7°C° 0 mm 0 m/S 608 mmHg 33%
    01:00 +6°C° 0 mm 0 m/S 608 mmHg 34%
    02:00 +6°C° 0 mm 0 m/S 608 mmHg 34%
    03:00 +6°C° 0 mm 0 m/S 607 mmHg 34%
    04:00 +6°C° 0 mm 0 m/S 607 mmHg 34%
    05:00 +5°C° 0 mm 0 m/S 607 mmHg 34%
    06:00 +6°C° 0 mm 0 m/S 607 mmHg 34%
    07:00 +6°C° 0 mm 0 m/S 608 mmHg 33%
    08:00 +6°C° 0 mm 0 m/S 608 mmHg 33%
    09:00 +8°C° 0 mm 0 m/S 609 mmHg 29%
    10:00 +11°C° 0 mm 1 m/S 609 mmHg 25%
    11:00 +12°C° 0 mm 1 m/S 610 mmHg 20%
    12:00 +13°C° 0 mm 1 m/S 609 mmHg 20%
    13:00 +13°C° 0 mm 1 m/S 609 mmHg 19%
    14:00 +14°C° 0 mm 1 m/S 609 mmHg 19%
    15:00 +13°C° 0 mm 1 m/S 609 mmHg 22%
    16:00 +12°C° 0 mm 1 m/S 608 mmHg 26%
    17:00 +12°C° 0 mm 1 m/S 608 mmHg 29%
    18:00 +11°C° 0 mm 1 m/S 608 mmHg 31%
    19:00 +9°C° 0 mm 0 m/S 608 mmHg 32%
    20:00 +9°C° 0 mm 0 m/S 608 mmHg 33%
    21:00 +8°C° 0 mm 0 m/S 608 mmHg 34%
    22:00 +8°C° 0 mm 0 m/S 608 mmHg 34%
    23:00 +8°C° 0 mm 0 m/S 608 mmHg 34%

    20 November, Mittwoch

    Zeit Temperatur Niederschläge Wind Luftdruck Luftfeuchtigkeit
    00:00 +8°C° 0 mm 0 m/S 608 mmHg 33%
    01:00 +7°C° 0 mm 0 m/S 608 mmHg 33%
    02:00 +7°C° 0 mm 0 m/S 607 mmHg 32%
    03:00 +7°C° 0 mm 0 m/S 607 mmHg 32%
    04:00 +6°C° 0 mm 0 m/S 607 mmHg 33%
    05:00 +6°C° 0 mm 0 m/S 606 mmHg 33%
    06:00 +6°C° 0 mm 0 m/S 607 mmHg 33%
    07:00 +6°C° 0 mm 0 m/S 607 mmHg 33%
    08:00 +7°C° 0 mm 0 m/S 608 mmHg 33%
    09:00 +8°C° 0 mm 0 m/S 608 mmHg 30%
    10:00 +10°C° 0 mm 1 m/S 608 mmHg 28%
    11:00 +11°C° 0 mm 1 m/S 608 mmHg 25%
    12:00 +10°C° 0.2 mm 1 m/S 608 mmHg 36%
    13:00 +8°C° 0.2 mm 2 m/S 607 mmHg 48%
    14:00 +7°C° 0.2 mm 2 m/S 606 mmHg 59%
    15:00 +7°C° 0.2 mm 2 m/S 606 mmHg 60%
    16:00 +7°C° 0.2 mm 2 m/S 606 mmHg 61%
    17:00 +6°C° 0.2 mm 2 m/S 606 mmHg 62%
    18:00 +6°C° 0.3 mm 2 m/S 606 mmHg 65%
    19:00 +6°C° 0.3 mm 2 m/S 606 mmHg 68%
    20:00 +5°C° 0.3 mm 2 m/S 607 mmHg 71%
    21:00 +5°C° 0.3 mm 2 m/S 606 mmHg 73%
    22:00 +5°C° 0.3 mm 2 m/S 606 mmHg 75%
    23:00 +4°C° 0.3 mm 2 m/S 606 mmHg 77%

    21 November, Donnerstag

    Zeit Temperatur Niederschläge Wind Luftdruck Luftfeuchtigkeit
    00:00 +4°C° 0.4 mm 2 m/S 606 mmHg 82%
    01:00 +4°C° 0.4 mm 1 m/S 605 mmHg 87%
    02:00 +4°C° 0.4 mm 1 m/S 605 mmHg 92%
    03:00 +4°C° 1 mm 1 m/S 605 mmHg 93%
    04:00 +4°C° 1 mm 1 m/S 604 mmHg 95%
    05:00 +4°C° 1 mm 1 m/S 604 mmHg 96%
    06:00 +3°C° 1.4 mm 1 m/S 604 mmHg 96%
    07:00 +3°C° 1.4 mm 1 m/S 605 mmHg 96%
    08:00 +3°C° 1.4 mm 1 m/S 605 mmHg 97%
    09:00 +3°C° 1.3 mm 1 m/S 605 mmHg 97%
    10:00 +4°C° 1.3 mm 1 m/S 605 mmHg 97%
    11:00 +4°C° 1.3 mm 1 m/S 605 mmHg 97%
    12:00 +4°C° 0.7 mm 1 m/S 605 mmHg 97%
    13:00 +3°C° 0.7 mm 2 m/S 605 mmHg 97%
    14:00 +3°C° 0.7 mm 2 m/S 605 mmHg 97%
    15:00 +3°C° 0.6 mm 2 m/S 605 mmHg 97%
    16:00 +3°C° 0.6 mm 2 m/S 606 mmHg 97%
    17:00 +3°C° 0.6 mm 2 m/S 606 mmHg 97%
    18:00 +3°C° 0.5 mm 2 m/S 607 mmHg 96%
    19:00 +3°C° 0.5 mm 2 m/S 607 mmHg 96%
    20:00 +4°C° 0.5 mm 1 m/S 608 mmHg 96%
    21:00 +3°C° 0.1 mm 1 m/S 608 mmHg 94%
    22:00 +3°C° 0.1 mm 1 m/S 609 mmHg 92%
    23:00 +3°C° 0.1 mm 1 m/S 609 mmHg 89%

    22 November, Freitag

    Zeit Temperatur Niederschläge Wind Luftdruck Luftfeuchtigkeit
    00:00 +3°C° 0 mm 1 m/S 609 mmHg 86%
    01:00 +2°C° 0 mm 1 m/S 609 mmHg 83%
    02:00 +2°C° 0 mm 1 m/S 609 mmHg 80%
    03:00 +1°C° 0 mm 1 m/S 609 mmHg 78%
    04:00 +1°C° 0 mm 1 m/S 609 mmHg 76%
    05:00 +1°C° 0 mm 1 m/S 609 mmHg 74%
    06:00 +1°C° 0 mm 1 m/S 609 mmHg 71%
    07:00 +1°C° 0 mm 1 m/S 610 mmHg 68%
    08:00 +1°C° 0 mm 1 m/S 610 mmHg 65%
    09:00 +2°C° 0 mm 1 m/S 610 mmHg 63%
    10:00 +3°C° 0 mm 1 m/S 610 mmHg 61%
    11:00 +4°C° 0 mm 1 m/S 610 mmHg 59%
    12:00 +4°C° 0 mm 1 m/S 610 mmHg 59%
    13:00 +5°C° 0 mm 1 m/S 610 mmHg 58%
    14:00 +5°C° 0 mm 1 m/S 609 mmHg 58%
    15:00 +4°C° 0 mm 1 m/S 609 mmHg 59%
    16:00 +4°C° 0 mm 1 m/S 609 mmHg 61%
    17:00 +3°C° 0 mm 1 m/S 610 mmHg 62%
    18:00 +3°C° 0 mm 1 m/S 610 mmHg 60%
    19:00 +2°C° 0 mm 1 m/S 610 mmHg 58%
    20:00 +2°C° 0 mm 1 m/S 610 mmHg 56%
    21:00 +1°C° 0 mm 1 m/S 610 mmHg 55%
    22:00 +1°C° 0 mm 1 m/S 610 mmHg 55%
    23:00 +1°C° 0 mm 1 m/S 610 mmHg 54%
    Mehr zeigen